Weather History for Goose, NL

Change the Weather History Date:

Tuesday, July 30, 2013

  Actual Average Record
Temperature  
Mean Temperature 65 °F -  
Max Temperature 73 °F 69 °F 85 °F (2012)
Min Temperature 57 °F 51 °F 42 °F (1997)
Growing Degree Days 15 (Base 50)    
Moisture  
Dew Point 55 °F    
Average Humidity 66    
Maximum Humidity 88    
Minimum Humidity 46    
Precipitation  
Precipitation 0.08 in - - ()
Sea Level Pressure  
Sea Level Pressure 30.04 in    
Wind  
Wind Speed 6 mph ()    
Max Wind Speed 13 mph    
Max Gust Speed 21 mph    
Visibility 12.4 miles    
Events Rain    
Averages and records for this station are not official NWS values.
T = Trace of Precipitation, MM = Missing Value Source: Averaged Metar Reports

Daily Weather History Graph

Daily Weather History Graph

Search for Another Location

Airport:

Trip Planner

Search our weather history database for the weather conditions in past years. The results will help you decide how hot, cold, wet, or windy it might be!

Date:

Astronomy

Jul. 30, 2013 Rise Set
Actual Time 5:15 AM ADT 8:59 PM ADT
Civil Twilight 4:31 AM ADT 9:43 PM ADT
Nautical Twilight 3:29 AM ADT 10:44 PM ADT
Astronomical Twilight 1:33 AM ADT 12:31 AM ADT
Moon No Moon Rise 3:11 PM ADT (7/30)
Length of Visible Light 17h 12m
Length of Day
15h 44m
Last Quarter, 41% of the Moon is Illuminated
Jul 30
Last Quarter
Aug 6
New
Aug 14
First Quarter
Aug 20
Full
Aug 28
Last Quarter

Hourly Weather History & Observations

Time (ADT) Temp. Dew Point Humidity Pressure Visibility Wind Dir Wind Speed Gust Speed Precip Events Conditions
12:00 AM 69.8 °F 48.2 °F 46% 30.10 in 15.0 mi SSW 9.2 mph - N/A   Overcast
1:00 AM 68.0 °F 48.2 °F 49% 30.10 in 15.0 mi WSW 8.1 mph - N/A   Overcast
2:00 AM 68.0 °F 50.0 °F 52% 30.10 in 15.0 mi WSW 9.2 mph - N/A   Overcast
3:00 AM 66 °F 50 °F 46% 30.10 in 15 mi SSW 5.8 mph - -   Overcast
3:00 AM 66.2 °F 50.0 °F 56% 30.10 in 15.0 mi South 5.8 mph - N/A   Overcast
4:00 AM 64.4 °F 50.0 °F 59% 30.10 in 15.0 mi SSW 6.9 mph - N/A   Overcast
4:37 AM - - N/A% - 5.0 mi South 9.2 mph - N/A Rain Light Rain Showers
5:00 AM 59.0 °F 53.6 °F 82% 30.11 in 5.0 mi WSW 11.5 mph - N/A Rain Light Rain Showers
5:32 AM - - N/A% - 2.0 mi NNW 2.3 mph - N/A Rain Light Rain
5:45 AM - - N/A% - 4.0 mi NW 4.6 mph - N/A Rain Light Rain
6:00 AM 57.2 °F 53.6 °F 88% 30.11 in 5.0 mi NNW 3.5 mph - N/A Rain Light Rain
6:29 AM - - N/A% - 6.0 mi Calm Calm - N/A Rain Light Rain
6:56 AM - - N/A% - 6.0 mi SE 3.5 mph - N/A   Overcast
7:00 AM 59.0 °F 55.4 °F 88% 30.10 in 6.0 mi SE 2.3 mph - N/A   Overcast
8:00 AM 59.0 °F 55.4 °F 88% 30.09 in 10.0 mi South 6.9 mph - N/A   Mostly Cloudy
9:00 AM 62 °F 56 °F 73% 30.09 in 15 mi South 5.8 mph - -   Partly Cloudy
9:00 AM 62.6 °F 55.4 °F 77% 30.09 in 15.0 mi South 5.8 mph - N/A   Mostly Cloudy
10:00 AM 64.4 °F 55.4 °F 73% 30.07 in 15.0 mi SSW 4.6 mph - N/A   Mostly Cloudy
11:00 AM 66.2 °F 57.2 °F 73% 30.06 in 15.0 mi Calm Calm - N/A   Mostly Cloudy
12:00 PM 66.2 °F 57.2 °F 73% 30.04 in 15.0 mi Calm Calm - N/A   Mostly Cloudy
1:00 PM 69.8 °F 57.2 °F 64% 30.02 in 15.0 mi SSW 3.5 mph - N/A   Mostly Cloudy
2:00 PM 71.6 °F 57.2 °F 60% 30.01 in 15.0 mi South 10.4 mph 20.7 mph N/A   Mostly Cloudy
3:00 PM 72 °F 57 °F 49% 29.99 in 15 mi South 10.4 mph - -   Mostly Cloudy
3:00 PM 71.6 °F 57.2 °F 60% 29.99 in 15.0 mi South 12.7 mph - N/A   Mostly Cloudy
4:00 PM 71.6 °F 57.2 °F 60% 29.99 in 15.0 mi SSW 12.7 mph - N/A   Mostly Cloudy
5:00 PM 71.6 °F 57.2 °F 60% 29.98 in 15.0 mi SSW 11.5 mph - N/A   Mostly Cloudy
6:00 PM 71.6 °F 57.2 °F 60% 29.99 in 15.0 mi SSW 8.1 mph - N/A   Overcast
7:00 PM 69.8 °F 57.2 °F 64% 29.97 in 15.0 mi SSW 8.1 mph - N/A   Mostly Cloudy
8:00 PM 69.8 °F 57.2 °F 64% 29.96 in 15.0 mi South 8.1 mph - N/A   Mostly Cloudy
9:00 PM 68 °F 58 °F 63% 29.95 in 15 mi SSW 6.9 mph - -   Mostly Cloudy
9:00 PM 68.0 °F 59.0 °F 73% 29.95 in 15.0 mi SSW 6.9 mph - N/A   Mostly Cloudy
10:00 PM 68.0 °F 59.0 °F 73% 29.95 in 15.0 mi SSW 3.5 mph - N/A   Mostly Cloudy
11:00 PM 66.2 °F 59.0 °F 78% 29.94 in 15.0 mi South 3.5 mph - N/A   Overcast